Weather History for KLAR - May, 2013

Change the Weather History Date:

Saturday, May 18, 2013

  Actual Average Record
Temperature  
Mean Temperature 50 °F 48 °F  
Max Temperature 60 °F 62 °F 80 °F (1970)
Min Temperature 40 °F 34 °F 20 °F (1983)
Degree Days  
Heating Degree Days 15 17  
Month to date heating degree days 333 351  
Since 1 July heating degree days 8273 8400  
Cooling Degree Days 0 0  
Month to date cooling degree days 0 0  
Year to date cooling degree days 0 0  
Moisture  
Dew Point 34 °F    
Average Humidity 59    
Maximum Humidity 85    
Minimum Humidity 33    
Precipitation  
Precipitation 0.02 in 0.06 in 0.29 in (1964)
Month to date precipitation 0.52 0.88  
Year to date precipitation 2.50 3.14  
Sea Level Pressure  
Sea Level Pressure 29.78 in    
Wind  
Wind Speed 9 mph (WSW)    
Max Wind Speed 31 mph    
Max Gust Speed 41 mph    
Visibility 10 miles    
Events Rain , Thunderstorm    
T = Trace of Precipitation, MM = Missing Value Source: NWS Daily Summary

Daily Weather History Graph

Daily Weather History Graph

Search for Another Location

Airport or City:

Trip Planner

Search our weather history database for the weather conditions in past years. The results will help you decide how hot, cold, wet, or windy it might be!

Date:

Astronomy

May. 18, 2013 Rise Set
Actual Time 5:41 AM MDT 8:17 PM MDT
Civil Twilight 5:09 AM MDT 8:49 PM MDT
Nautical Twilight 4:29 AM MDT 9:29 PM MDT
Astronomical Twilight 3:44 AM MDT 10:14 PM MDT
Moon 1:19 PM MDT (5/18) 1:39 AM MDT (5/18)
Length of Visible Light 15h 40m
Length of Day
14h 36m
First Quarter, 56% of the Moon is Illuminated
May 18
First Quarter
May 24
Full
May 31
Last Quarter
Jun 8
New
Jun 16
First Quarter

Hourly Weather History & Observations

Time (MDT) Temp. Windchill Dew Point Humidity Pressure Visibility Wind Dir Wind Speed Gust Speed Precip Events Conditions
12:53 AM 50.0 °F - 25.0 °F 38% 29.66 in 10.0 mi North 9.2 mph - N/A   Clear
1:53 AM 48.9 °F - 32.0 °F 52% 29.67 in 10.0 mi NNW 9.2 mph - N/A   Clear
2:53 AM 48.0 °F - 32.0 °F 54% 29.67 in 10.0 mi NW 10.4 mph - N/A   Clear
3:53 AM 44.1 °F 41.5 °F 32.0 °F 63% 29.70 in 10.0 mi SSW 4.6 mph - N/A   Clear
4:53 AM 44.1 °F 42.5 °F 32.0 °F 63% 29.72 in 10.0 mi South 3.5 mph - N/A   Clear
5:53 AM 42.1 °F 40.2 °F 32.0 °F 67% 29.76 in 10.0 mi SW 3.5 mph - N/A   Clear
6:53 AM 45.0 °F 43.5 °F 34.0 °F 65% 29.76 in 10.0 mi South 3.5 mph - N/A   Clear
7:53 AM 50.0 °F - 33.1 °F 52% 29.75 in 10.0 mi WSW 5.8 mph - N/A   Clear
8:53 AM 51.1 °F - 34.0 °F 52% 29.76 in 10.0 mi North - - N/A   Clear
9:53 AM 54.0 °F - 32.0 °F 43% 29.77 in 10.0 mi South 8.1 mph - N/A   Clear
10:53 AM 55.0 °F - 30.9 °F 40% 29.76 in 10.0 mi North - - N/A   Clear
11:53 AM 57.9 °F - 30.9 °F 36% 29.75 in 10.0 mi SSW 5.8 mph - N/A   Clear
1:50 PM 59.0 °F - 32.0 °F 36% 29.96 in 10.0 mi West 9.2 mph - 0.00 in Thunderstorm Clear
1:53 PM 57.9 °F - 32.0 °F 37% 29.72 in 10.0 mi WNW 8.1 mph - 0.00 in Thunderstorm Clear
2:06 PM 55.4 °F - 32.0 °F 41% 29.98 in 10.0 mi SSW 20.7 mph 28.8 mph N/A   Scattered Clouds
2:17 PM 50.0 °F - 37.4 °F 62% 29.99 in 9.0 mi SW 28.8 mph 41.4 mph 0.00 in Rain Light Rain
2:53 PM 52.0 °F - 35.1 °F 53% 29.77 in 10.0 mi North - - 0.00 in Rain Light Rain
3:53 PM 57.0 °F - 33.1 °F 40% 29.74 in 10.0 mi WNW 13.8 mph 27.6 mph 0.01 in   Overcast
4:01 PM 57.2 °F - 33.8 °F 41% 29.96 in 10.0 mi West 21.9 mph 28.8 mph N/A   Overcast
4:53 PM 52.0 °F - 33.1 °F 49% 29.80 in 10.0 mi West 19.6 mph 31.1 mph 0.00 in   Overcast
5:53 PM 45.0 °F 37.4 °F 37.9 °F 76% 29.85 in 8.0 mi WSW 18.4 mph 33.4 mph 0.01 in Rain Light Rain
6:53 PM 48.0 °F - 39.0 °F 71% 29.80 in 10.0 mi SSW 16.1 mph - 0.00 in   Partly Cloudy
7:53 PM 43.0 °F 37.2 °F 37.9 °F 82% 29.77 in 10.0 mi SSW 10.4 mph - N/A   Clear
8:53 PM 42.1 °F 35.7 °F 37.0 °F 82% 29.79 in 10.0 mi SW 11.5 mph - N/A   Mostly Cloudy
9:53 PM 42.1 °F 36.6 °F 36.0 °F 79% 29.78 in 10.0 mi West 9.2 mph - N/A   Scattered Clouds
10:53 PM 43.0 °F 37.2 °F 35.1 °F 74% 29.76 in 10.0 mi West 10.4 mph - N/A   Mostly Cloudy
11:53 PM 39.9 °F 33.4 °F 35.1 °F 83% 29.75 in 10.0 mi SSW 10.4 mph - N/A   Clear